Location: Deurze
(52.9838°N, 6.6090°E)
Time: 18:44:55
(UTC+00:00)

CSL-04 Rocket - Pass Details

Date: 11 March 2026
Orbit: 805 x 857 km, 98.7° (Epoch: 20 April)

Event Time Altitude Azimuth Distance (km) Brightness Sun altitude
Rises 18:36:33 0° 150° (SSE) 3,330 6.4 -10.7°
Reaches altitude 10° 18:38:53 10° 147° (SSE) 2,409 5.7 -11.1°
Maximum altitude 18:44:07 61° 68° (ENE) 941 3.7 -11.9°
Drops below altitude 10° 18:49:28 10° 350° (N) 2,459 6.4 -12.7°
Sets 18:51:53 0° 347° (NNW) 3,405 7.2 -13.0°
